Location: Caltech
(34.1382°N, 118.1253°W)
Time: 12:08:16
(UTC-08:00)

Cosmos 2084 - Visible Passes

Search period start: 20 December 2014 00:00
Search period end: 30 December 2014 00:00
Orbit: 561 x 636 km, 62.8° (Epoch: 20 December)

Date Brightness Start Highest point End Pass type
(mag) Time Alt. Az. Time Alt. Az. Time Alt. Az.
20 Dec 5.9 04:39:01 14° NNE 04:40:51 17° NE 04:43:54 10° E visible
20 Dec 3.9 06:16:21 10° NW 06:20:46 51° WSW 06:25:12 10° SSE visible
21 Dec 5.2 04:49:57 22° NNE 04:51:45 30° NE 04:55:46 10° ESE visible
21 Dec 4.8 06:27:31 10° WNW 06:31:18 26° WSW 06:35:04 10° S visible
22 Dec 4.1 05:00:57 36° N 05:02:32 55° NE 05:07:01 10° SE visible
23 Dec 3.5 05:12:02 49° NW 05:13:11 77° WSW 05:17:45 10° SSE visible
23 Dec 6.0 19:10:46 10° SSW 19:11:14 13° S 19:11:14 13° S visible
24 Dec 6.5 03:46:26 15° E 03:46:26 15° E 03:47:30 10° E visible
24 Dec 4.1 05:23:11 37° W 05:23:45 38° WSW 05:27:59 10° S visible
24 Dec 5.7 19:21:12 10° SSW 19:22:32 20° SW 19:22:32 20° SW visible
25 Dec 6.1 03:57:39 19° ESE 03:57:39 19° ESE 03:59:05 10° ESE visible
25 Dec 5.1 05:34:24 20° WSW 05:34:24 20° WSW 05:37:32 10° SSW visible
25 Dec 5.1 17:54:18 10° SSE 17:56:49 16° ESE 17:57:02 16° ESE visible
25 Dec 5.8 19:32:07 10° SW 19:33:47 22° WSW 19:33:47 22° WSW visible
26 Dec 6.0 04:08:55 18° SE 04:08:55 18° SE 04:10:06 10° SE visible
26 Dec 4.3 18:03:31 10° S 18:07:14 31° ESE 18:08:14 28° E visible
26 Dec 6.2 19:43:35 10° W 19:44:59 17° W 19:44:59 17° W visible
27 Dec 6.2 04:20:13 12° SSE 04:20:13 12° SSE 04:20:38 10° SSE visible
27 Dec 3.4 18:13:35 10° SSW 18:17:45 66° ESE 18:19:21 36° NE visible
27 Dec 6.6 19:55:55 10° WNW 19:56:06 10° WNW 19:56:06 10° WNW visible
28 Dec 3.8 18:24:12 10° SW 18:28:21 61° WNW 18:30:24 29° NNE visible
29 Dec 5.0 18:35:19 10° WSW 18:39:05 31° NW 18:41:22 19° N visible
